Terug naar catalogus

DELTA 1 DEB

ActiefPO
NORAD 7890·DEBRIS·🇺🇸 United States

Gelanceerd Jul 23, 1972 vanaf Vandenberg Space Force Base

Loading…

Volgende Passages (komende 24 uur)

TLE

VersSource: Space-Track

Epoch: Sep 14, 2026, 14:38 UTC

1 07890U 72058BG  26257.60987282  .00009465  00000-0  86119-3 0  9992
2 07890  98.8384  18.8628 0091591  99.3426 261.8160 14.92262272653787

Volg DELTA 1 DEB in realtime met AllMySat

Download on the App Store